• In Belarus
  • List of Countries
  • For 7 days
  • Water Temperature
  • Satellite Maps
  • Weather Map
  • Weather Widgets
  • user-avatar
    Login

    Hourly Weather Lezhe

    Today, 20 November, Monday

    Time Temperature Precipitation Wind Pressure Humidity
    00:00 +8°C° 0.8 mm 3 mps 733 mmHg 92%
    01:00 +7°C° 0 mm 3 mps 734 mmHg 92%
    02:00 +6°C° 0.6 mm 4 mps 734 mmHg 89%
    03:00 +5°C° 0.6 mm 4 mps 734 mmHg 86%
    04:00 +5°C° 0.6 mm 5 mps 735 mmHg 83%
    05:00 +4°C° 0.1 mm 4 mps 735 mmHg 82%
    06:00 +4°C° 0.1 mm 4 mps 736 mmHg 81%
    07:00 +4°C° 0 mm 3 mps 735 mmHg 81%
    08:00 +5°C° 0 mm 3 mps 736 mmHg 74%
    09:00 +6°C° 0 mm 4 mps 737 mmHg 68%
    10:00 +7°C° 0 mm 4 mps 737 mmHg 61%
    11:00 +7°C° 0 mm 4 mps 737 mmHg 58%
    12:00 +7°C° 0 mm 4 mps 738 mmHg 55%
    13:00 +8°C° 0 mm 4 mps 738 mmHg 51%
    14:00 +8°C° 0 mm 3 mps 738 mmHg 55%
    15:00 +7°C° 0 mm 3 mps 738 mmHg 59%
    16:00 +5°C° 0 mm 3 mps 739 mmHg 62%
    17:00 +4°C° 0 mm 3 mps 739 mmHg 64%
    18:00 +3°C° 0 mm 3 mps 739 mmHg 66%
    19:00 +3°C° 0 mm 3 mps 740 mmHg 68%
    20:00 +3°C° 0 mm 2 mps 740 mmHg 67%
    21:00 +3°C° 0 mm 2 mps 741 mmHg 66%
    22:00 +3°C° 0 mm 2 mps 741 mmHg 65%
    23:00 +3°C° 0 mm 2 mps 741 mmHg 63%

    Tomorrow, 21 November, Tuesday

    Time Temperature Precipitation Wind Pressure Humidity
    00:00 +3°C° 0 mm 2 mps 741 mmHg 62%
    01:00 +3°C° 0 mm 2 mps 741 mmHg 60%
    02:00 +3°C° 0 mm 2 mps 741 mmHg 58%
    03:00 +3°C° 0 mm 2 mps 741 mmHg 56%
    04:00 +3°C° 0 mm 2 mps 741 mmHg 55%
    05:00 +3°C° 0 mm 2 mps 741 mmHg 54%
    06:00 +4°C° 0 mm 2 mps 741 mmHg 53%
    07:00 +5°C° 0 mm 1 mps 741 mmHg 52%
    08:00 +6°C° 0 mm 1 mps 741 mmHg 48%
    09:00 +8°C° 0 mm 1 mps 741 mmHg 45%
    10:00 +10°C° 0 mm 1 mps 741 mmHg 41%
    11:00 +9°C° 0 mm 2 mps 741 mmHg 43%
    12:00 +10°C° 0 mm 2 mps 740 mmHg 44%
    13:00 +10°C° 0 mm 2 mps 740 mmHg 45%
    14:00 +9°C° 0 mm 2 mps 740 mmHg 51%
    15:00 +8°C° 0 mm 2 mps 740 mmHg 57%
    16:00 +7°C° 0 mm 2 mps 740 mmHg 63%
    17:00 +6°C° 0 mm 2 mps 741 mmHg 65%
    18:00 +6°C° 0 mm 2 mps 741 mmHg 67%
    19:00 +5°C° 0 mm 2 mps 741 mmHg 69%
    20:00 +5°C° 0 mm 2 mps 741 mmHg 71%
    21:00 +5°C° 0 mm 2 mps 741 mmHg 73%
    22:00 +5°C° 0 mm 2 mps 741 mmHg 76%
    23:00 +5°C° 0 mm 2 mps 741 mmHg 76%

    Day after tomorrow, 22 November, Wednesday

    Time Temperature Precipitation Wind Pressure Humidity
    00:00 +5°C° 0 mm 2 mps 741 mmHg 77%
    01:00 +5°C° 0 mm 2 mps 741 mmHg 78%
    02:00 +5°C° 0 mm 2 mps 741 mmHg 79%
    03:00 +5°C° 0 mm 2 mps 741 mmHg 80%
    04:00 +5°C° 0 mm 2 mps 741 mmHg 80%
    05:00 +5°C° 0 mm 2 mps 741 mmHg 80%
    06:00 +5°C° 0 mm 2 mps 741 mmHg 80%
    07:00 +5°C° 0 mm 2 mps 741 mmHg 80%
    08:00 +8°C° 0 mm 1 mps 741 mmHg 75%
    09:00 +10°C° 0 mm 1 mps 742 mmHg 70%
    10:00 +12°C° 0 mm 1 mps 742 mmHg 65%
    11:00 +13°C° 0 mm 1 mps 741 mmHg 64%
    12:00 +13°C° 0 mm 1 mps 741 mmHg 64%
    13:00 +14°C° 0 mm 1 mps 741 mmHg 64%
    14:00 +13°C° 0 mm 1 mps 741 mmHg 69%
    15:00 +12°C° 0 mm 1 mps 740 mmHg 75%
    16:00 +10°C° 0 mm 1 mps 740 mmHg 81%
    17:00 +10°C° 0 mm 1 mps 741 mmHg 82%
    18:00 +9°C° 0 mm 1 mps 741 mmHg 84%
    19:00 +9°C° 0 mm 1 mps 741 mmHg 85%
    20:00 +9°C° 0 mm 1 mps 741 mmHg 84%
    21:00 +9°C° 0 mm 1 mps 741 mmHg 83%
    22:00 +9°C° 0 mm 1 mps 741 mmHg 82%
    23:00 +8°C° 0 mm 1 mps 741 mmHg 82%

    23 November, Thursday

    Time Temperature Precipitation Wind Pressure Humidity
    00:00 +8°C° 0 mm 1 mps 741 mmHg 81%
    01:00 +8°C° 0 mm 1 mps 741 mmHg 80%
    02:00 +8°C° 0 mm 1 mps 741 mmHg 80%
    03:00 +8°C° 0 mm 1 mps 741 mmHg 80%
    04:00 +8°C° 0 mm 1 mps 741 mmHg 80%
    05:00 +8°C° 0 mm 1 mps 741 mmHg 79%
    06:00 +8°C° 0 mm 1 mps 741 mmHg 78%
    07:00 +8°C° 0 mm 1 mps 742 mmHg 77%
    08:00 +10°C° 0 mm 1 mps 742 mmHg 71%
    09:00 +12°C° 0 mm 1 mps 742 mmHg 66%
    10:00 +14°C° 0 mm 1 mps 742 mmHg 61%
    11:00 +14°C° 0 mm 1 mps 742 mmHg 60%
    12:00 +15°C° 0 mm 1 mps 741 mmHg 59%
    13:00 +15°C° 0 mm 1 mps 741 mmHg 59%
    14:00 +14°C° 0 mm 1 mps 741 mmHg 65%
    15:00 +13°C° 0 mm 1 mps 741 mmHg 72%
    16:00 +12°C° 0 mm 1 mps 741 mmHg 78%
    17:00 +11°C° 0 mm 1 mps 742 mmHg 80%
    18:00 +11°C° 0 mm 1 mps 742 mmHg 81%
    19:00 +10°C° 0 mm 1 mps 742 mmHg 82%
    20:00 +10°C° 0 mm 1 mps 743 mmHg 80%
    21:00 +10°C° 0 mm 1 mps 743 mmHg 78%
    22:00 +10°C° 0 mm 1 mps 743 mmHg 76%
    23:00 +9°C° 0 mm 1 mps 743 mmHg 75%

    24 November, Friday

    Time Temperature Precipitation Wind Pressure Humidity
    00:00 +9°C° 0 mm 1 mps 743 mmHg 75%
    01:00 +9°C° 0 mm 1 mps 743 mmHg 74%
    02:00 +9°C° 0 mm 1 mps 743 mmHg 74%
    03:00 +9°C° 0 mm 1 mps 742 mmHg 74%
    04:00 +9°C° 0 mm 1 mps 742 mmHg 74%
    05:00 +9°C° 0 mm 1 mps 742 mmHg 74%
    06:00 +9°C° 0 mm 1 mps 743 mmHg 73%
    07:00 +9°C° 0 mm 1 mps 743 mmHg 73%
    08:00 +10°C° 0 mm 1 mps 743 mmHg 69%
    09:00 +12°C° 0 mm 1 mps 743 mmHg 64%
    10:00 +13°C° 0 mm 0 mps 743 mmHg 60%
    11:00 +15°C° 0 mm 1 mps 743 mmHg 59%
    12:00 +15°C° 0 mm 1 mps 742 mmHg 59%
    13:00 +16°C° 0 mm 1 mps 742 mmHg 59%
    14:00 +15°C° 0 mm 1 mps 742 mmHg 65%
    15:00 +13°C° 0 mm 1 mps 742 mmHg 71%
    16:00 +12°C° 0 mm 1 mps 742 mmHg 78%
    17:00 +12°C° 0 mm 1 mps 742 mmHg 78%
    18:00 +11°C° 0 mm 1 mps 743 mmHg 78%
    19:00 +10°C° 0 mm 1 mps 743 mmHg 78%
    20:00 +10°C° 0 mm 1 mps 743 mmHg 75%
    21:00 +10°C° 0 mm 1 mps 744 mmHg 73%
    22:00 +10°C° 0 mm 1 mps 744 mmHg 71%
    23:00 +10°C° 0 mm 1 mps 744 mmHg 70%

    25 November, Saturday

    Time Temperature Precipitation Wind Pressure Humidity
    00:00 +9°C° 0 mm 2 mps 744 mmHg 70%
    01:00 +8°C° 0 mm 2 mps 744 mmHg 69%
    02:00 +8°C° 0 mm 2 mps 744 mmHg 68%
    03:00 +8°C° 0 mm 2 mps 744 mmHg 68%
    04:00 +8°C° 0 mm 2 mps 744 mmHg 68%
    05:00 +8°C° 0 mm 2 mps 744 mmHg 67%
    06:00 +8°C° 0 mm 2 mps 744 mmHg 67%
    07:00 +8°C° 0 mm 2 mps 744 mmHg 66%
    08:00 +10°C° 0 mm 2 mps 744 mmHg 61%
    09:00 +13°C° 0 mm 1 mps 744 mmHg 56%
    10:00 +15°C° 0 mm 1 mps 744 mmHg 51%
    11:00 +15°C° 0 mm 1 mps 744 mmHg 49%
    12:00 +16°C° 0 mm 1 mps 744 mmHg 47%
    13:00 +18°C° 0 mm 1 mps 743 mmHg 45%
    14:00 +15°C° 0 mm 1 mps 743 mmHg 50%
    15:00 +14°C° 0 mm 1 mps 743 mmHg 56%
    16:00 +13°C° 0 mm 1 mps 743 mmHg 62%
    17:00 +12°C° 0 mm 1 mps 743 mmHg 63%
    18:00 +11°C° 0 mm 1 mps 744 mmHg 63%
    19:00 +11°C° 0 mm 1 mps 744 mmHg 64%
    20:00 +11°C° 0 mm 1 mps 744 mmHg 64%
    21:00 +10°C° 0 mm 1 mps 744 mmHg 64%
    22:00 +10°C° 0 mm 1 mps 745 mmHg 65%
    23:00 +10°C° 0 mm 1 mps 744 mmHg 65%
    Show more